Year,Month,Day,Hour,Minute,Value (Times are PST for temperature in C)
2010,08,05,00,00,15.30
2010,08,05,00,01,15.20
2010,08,05,00,02,15.10
2010,08,05,00,03,15.00
2010,08,05,00,04,15.00
2010,08,05,00,05,14.90
2010,08,05,00,06,14.90
2010,08,05,00,07,14.80
2010,08,05,00,08,14.80
2010,08,05,00,09,14.80
2010,08,05,00,10,14.70
2010,08,05,00,11,14.70
2010,08,05,00,12,14.70
2010,08,05,00,13,14.60
2010,08,05,00,14,14.60
2010,08,05,00,15,14.50
2010,08,05,00,16,14.50
2010,08,05,00,17,14.40
2010,08,05,00,18,14.30
2010,08,05,00,19,14.20
2010,08,05,00,20,14.20
2010,08,05,00,21,14.20
2010,08,05,00,22,14.20
2010,08,05,00,23,14.20
2010,08,05,00,24,14.10
2010,08,05,00,25,14.10
2010,08,05,00,26,14.10
2010,08,05,00,27,14.00
2010,08,05,00,28,14.00
2010,08,05,00,29,14.00
2010,08,05,00,30,14.00
2010,08,05,00,31,14.00
2010,08,05,00,32,14.00
2010,08,05,00,33,14.00
2010,08,05,00,34,14.00
2010,08,05,00,35,14.00
2010,08,05,00,36,14.00
2010,08,05,00,37,14.00
2010,08,05,00,38,14.00
2010,08,05,00,39,14.00
2010,08,05,00,40,14.00
2010,08,05,00,41,14.00
2010,08,05,00,42,14.00
2010,08,05,00,43,14.00
2010,08,05,00,44,14.00
2010,08,05,00,45,14.00
2010,08,05,00,46,14.00
2010,08,05,00,47,14.00
2010,08,05,00,48,14.00
2010,08,05,00,49,14.00
2010,08,05,00,50,14.00
2010,08,05,00,51,14.10
2010,08,05,00,52,14.10
2010,08,05,00,53,14.10
2010,08,05,00,54,14.10
2010,08,05,00,55,14.10
2010,08,05,00,56,14.10
2010,08,05,00,57,14.10
2010,08,05,00,58,14.10
2010,08,05,00,59,14.10
2010,08,05,01,00,14.10
2010,08,05,01,01,14.20
2010,08,05,01,02,14.20
2010,08,05,01,03,14.20
2010,08,05,01,04,14.20
2010,08,05,01,05,14.20
2010,08,05,01,06,14.20
2010,08,05,01,07,14.20
2010,08,05,01,08,14.20
2010,08,05,01,09,14.20
2010,08,05,01,10,14.20
2010,08,05,01,11,14.20
2010,08,05,01,12,14.30
2010,08,05,01,13,14.30
2010,08,05,01,14,14.30
2010,08,05,01,15,14.30
2010,08,05,01,16,14.30
2010,08,05,01,17,14.30
2010,08,05,01,18,14.30
2010,08,05,01,19,14.30
2010,08,05,01,20,14.30
2010,08,05,01,21,14.30
2010,08,05,01,22,14.40
2010,08,05,01,23,14.40
2010,08,05,01,24,14.30
2010,08,05,01,25,14.40
2010,08,05,01,26,14.40
2010,08,05,01,27,14.40
2010,08,05,01,28,14.40
2010,08,05,01,29,14.40
2010,08,05,01,30,14.40
2010,08,05,01,31,14.30
2010,08,05,01,32,14.30
2010,08,05,01,33,14.30
2010,08,05,01,34,14.40
2010,08,05,01,35,14.40
2010,08,05,01,36,14.40
2010,08,05,01,37,14.40
2010,08,05,01,38,14.40
2010,08,05,01,39,14.40
2010,08,05,01,40,14.40
2010,08,05,01,41,14.40
2010,08,05,01,42,14.40
2010,08,05,01,43,14.40
2010,08,05,01,44,14.50
2010,08,05,01,45,14.50
2010,08,05,01,46,14.50
2010,08,05,01,47,14.50
2010,08,05,01,48,14.50
2010,08,05,01,49,14.50
2010,08,05,01,50,14.50
2010,08,05,01,51,14.50
2010,08,05,01,52,14.60
2010,08,05,01,53,14.60
2010,08,05,01,54,14.60
2010,08,05,01,55,14.60
2010,08,05,01,56,14.60
2010,08,05,01,57,14.60
2010,08,05,01,58,14.60
2010,08,05,01,59,14.60
2010,08,05,02,00,14.60
2010,08,05,02,01,14.70
2010,08,05,02,02,14.70
2010,08,05,02,03,14.70
2010,08,05,02,04,14.80
2010,08,05,02,05,14.80
2010,08,05,02,06,14.80
2010,08,05,02,07,14.80
2010,08,05,02,08,14.80
2010,08,05,02,09,14.80
2010,08,05,02,10,14.80
2010,08,05,02,11,14.80
2010,08,05,02,12,14.90
2010,08,05,02,13,14.90
2010,08,05,02,14,15.00
2010,08,05,02,15,15.00
2010,08,05,02,16,15.00
2010,08,05,02,17,15.10
2010,08,05,02,18,15.10
2010,08,05,02,19,15.10
2010,08,05,02,20,15.10
2010,08,05,02,21,15.20
2010,08,05,02,22,15.20
2010,08,05,02,23,15.20
2010,08,05,02,24,15.20
2010,08,05,02,25,15.20
2010,08,05,02,26,15.30
2010,08,05,02,27,15.30
2010,08,05,02,28,15.30
2010,08,05,02,29,15.30
2010,08,05,02,30,15.30
2010,08,05,02,31,15.30
2010,08,05,02,32,15.30
2010,08,05,02,33,15.30
2010,08,05,02,34,15.30
2010,08,05,02,35,15.40
2010,08,05,02,36,15.40
2010,08,05,02,37,15.40
2010,08,05,02,38,15.40
2010,08,05,02,39,15.40
2010,08,05,02,40,15.40
2010,08,05,02,41,15.40
2010,08,05,02,42,15.50
2010,08,05,02,43,15.50
2010,08,05,02,44,15.50
2010,08,05,02,45,15.50
2010,08,05,02,46,15.50
2010,08,05,02,47,15.50
2010,08,05,02,48,15.50
2010,08,05,02,49,15.50
2010,08,05,02,50,15.60
2010,08,05,02,51,15.60
2010,08,05,02,52,15.60
2010,08,05,02,53,15.60
2010,08,05,02,54,15.70
2010,08,05,02,55,15.70
2010,08,05,02,56,15.80
2010,08,05,02,57,15.80
2010,08,05,02,58,15.80
2010,08,05,02,59,15.80
2010,08,05,03,00,15.80
2010,08,05,03,01,15.80
2010,08,05,03,02,15.80
2010,08,05,03,03,15.80
2010,08,05,03,04,15.90
2010,08,05,03,05,15.90
2010,08,05,03,06,15.90
2010,08,05,03,07,15.90
2010,08,05,03,08,15.90
2010,08,05,03,09,15.90
2010,08,05,03,10,15.90
2010,08,05,03,11,15.80
2010,08,05,03,12,15.80
2010,08,05,03,13,15.80
2010,08,05,03,14,15.80
2010,08,05,03,15,15.80
2010,08,05,03,16,15.80
2010,08,05,03,17,15.80
2010,08,05,03,18,15.80
2010,08,05,03,19,15.80
2010,08,05,03,20,15.70
2010,08,05,03,21,15.70
2010,08,05,03,22,15.70
2010,08,05,03,23,15.60
2010,08,05,03,24,15.50
2010,08,05,03,25,15.50
2010,08,05,03,26,15.40
2010,08,05,03,27,15.30
2010,08,05,03,28,15.30
2010,08,05,03,29,15.20
2010,08,05,03,30,15.10
2010,08,05,03,31,15.10
2010,08,05,03,32,15.00
2010,08,05,03,33,15.00
2010,08,05,03,34,15.00
2010,08,05,03,35,14.90
2010,08,05,03,36,14.80
2010,08,05,03,37,14.80
2010,08,05,03,38,14.80
2010,08,05,03,39,14.70
2010,08,05,03,40,14.70
2010,08,05,03,41,14.60
2010,08,05,03,42,14.60
2010,08,05,03,43,14.60
2010,08,05,03,44,14.60
2010,08,05,03,45,14.50
2010,08,05,03,46,14.50
2010,08,05,03,47,14.50
2010,08,05,03,48,14.40
2010,08,05,03,49,14.40
2010,08,05,03,50,14.40
2010,08,05,03,51,14.40
2010,08,05,03,52,14.30
2010,08,05,03,53,14.30
2010,08,05,03,54,14.30
2010,08,05,03,55,14.20
2010,08,05,03,56,14.20
2010,08,05,03,57,14.20
2010,08,05,03,58,14.20
2010,08,05,03,59,14.20
2010,08,05,04,00,14.10
2010,08,05,04,01,14.00
2010,08,05,04,02,14.00
2010,08,05,04,03,14.00
2010,08,05,04,04,14.00
2010,08,05,04,05,13.90
2010,08,05,04,06,13.90
2010,08,05,04,07,13.80
2010,08,05,04,08,13.80
2010,08,05,04,09,13.80
2010,08,05,04,10,13.80
2010,08,05,04,11,13.80
2010,08,05,04,12,13.80
2010,08,05,04,13,13.80
2010,08,05,04,14,13.80
2010,08,05,04,15,13.80
2010,08,05,04,16,13.80
2010,08,05,04,17,13.80
2010,08,05,04,18,13.80
2010,08,05,04,19,13.80
2010,08,05,04,20,13.80
2010,08,05,04,21,13.80
2010,08,05,04,22,13.80
2010,08,05,04,23,13.80
2010,08,05,04,24,13.80
2010,08,05,04,25,13.80
2010,08,05,04,26,13.80
2010,08,05,04,27,13.80
2010,08,05,04,28,13.80
2010,08,05,04,29,13.90
2010,08,05,04,30,13.90
2010,08,05,04,31,13.90
2010,08,05,04,32,13.90
2010,08,05,04,33,13.90
2010,08,05,04,34,13.90
2010,08,05,04,35,13.90
2010,08,05,04,36,13.90
2010,08,05,04,37,13.90
2010,08,05,04,38,13.90
2010,08,05,04,39,13.90
2010,08,05,04,40,13.90
2010,08,05,04,41,13.90
2010,08,05,04,42,13.90
2010,08,05,04,43,13.90
2010,08,05,04,44,13.90
2010,08,05,04,45,13.90
2010,08,05,04,46,14.00
2010,08,05,04,47,14.00
2010,08,05,04,48,13.90
2010,08,05,04,49,13.90
2010,08,05,04,50,13.90
2010,08,05,04,51,13.90
2010,08,05,04,52,13.90
2010,08,05,04,53,13.90
2010,08,05,04,54,13.90
2010,08,05,04,55,14.00
2010,08,05,04,56,14.00
2010,08,05,04,57,14.00
2010,08,05,04,58,14.00
2010,08,05,04,59,14.00
2010,08,05,05,00,14.00
2010,08,05,05,01,14.00
2010,08,05,05,02,14.00
2010,08,05,05,03,14.00
2010,08,05,05,04,14.00
2010,08,05,05,05,14.00
2010,08,05,05,06,14.00
2010,08,05,05,07,14.10
2010,08,05,05,08,14.10
2010,08,05,05,09,14.10
2010,08,05,05,10,14.10
2010,08,05,05,11,14.10
2010,08,05,05,12,14.10
2010,08,05,05,13,14.10
2010,08,05,05,14,14.10
2010,08,05,05,15,14.10
2010,08,05,05,16,14.10
2010,08,05,05,17,14.10
2010,08,05,05,18,14.20
2010,08,05,05,19,14.20
2010,08,05,05,20,14.20
2010,08,05,05,21,14.20
2010,08,05,05,22,14.20
2010,08,05,05,23,14.20
2010,08,05,05,24,14.20
2010,08,05,05,25,14.20
2010,08,05,05,26,14.20
2010,08,05,05,27,14.20
2010,08,05,05,28,14.20
2010,08,05,05,29,14.20
2010,08,05,05,30,14.20
2010,08,05,05,31,14.20
2010,08,05,05,32,14.20
2010,08,05,05,33,14.20
2010,08,05,05,34,14.20
2010,08,05,05,35,14.20
2010,08,05,05,36,14.20
2010,08,05,05,37,14.20
2010,08,05,05,38,14.20
2010,08,05,05,39,14.10
2010,08,05,05,40,14.10
2010,08,05,05,41,14.10
2010,08,05,05,42,14.10
2010,08,05,05,43,14.10
2010,08,05,05,44,14.10
2010,08,05,05,45,14.10
2010,08,05,05,46,14.10
2010,08,05,05,47,14.10
2010,08,05,05,48,14.10
2010,08,05,05,49,14.00
2010,08,05,05,50,14.00
2010,08,05,05,51,14.00
2010,08,05,05,52,14.00
2010,08,05,05,53,14.00
2010,08,05,05,54,14.00
2010,08,05,05,55,14.10
2010,08,05,05,56,14.10
2010,08,05,05,57,14.10
2010,08,05,05,58,14.10
2010,08,05,05,59,14.10
2010,08,05,06,00,14.10
2010,08,05,06,01,14.10
2010,08,05,06,02,14.10
2010,08,05,06,03,14.10
2010,08,05,06,04,14.10
2010,08,05,06,05,14.10
2010,08,05,06,06,14.10
2010,08,05,06,07,14.10
2010,08,05,06,08,14.10
2010,08,05,06,09,14.10
2010,08,05,06,10,14.20
2010,08,05,06,11,14.20
2010,08,05,06,12,14.20
2010,08,05,06,13,14.20
2010,08,05,06,14,14.20
2010,08,05,06,15,14.20
2010,08,05,06,16,14.20
2010,08,05,06,17,14.20
2010,08,05,06,18,14.20
2010,08,05,06,19,14.20
2010,08,05,06,20,14.20
2010,08,05,06,21,14.20
2010,08,05,06,22,14.20
2010,08,05,06,23,14.30
2010,08,05,06,24,14.30
2010,08,05,06,25,14.30
2010,08,05,06,26,14.30
2010,08,05,06,27,14.40
2010,08,05,06,28,14.40
2010,08,05,06,29,14.40
2010,08,05,06,30,14.40
2010,08,05,06,31,14.50
2010,08,05,06,32,14.50
2010,08,05,06,33,14.50
2010,08,05,06,34,14.50
2010,08,05,06,35,14.50
2010,08,05,06,36,14.50
2010,08,05,06,37,14.50
2010,08,05,06,38,14.50
2010,08,05,06,39,14.50
2010,08,05,06,40,14.50
2010,08,05,06,41,14.50
2010,08,05,06,42,14.50
2010,08,05,06,43,14.60
2010,08,05,06,44,14.60
2010,08,05,06,45,14.60
2010,08,05,06,46,14.60
2010,08,05,06,47,14.60
2010,08,05,06,48,14.60
2010,08,05,06,49,14.60
2010,08,05,06,50,14.70
2010,08,05,06,51,14.70
2010,08,05,06,52,14.70
2010,08,05,06,53,14.70
2010,08,05,06,54,14.70
2010,08,05,06,55,14.80
2010,08,05,06,56,14.80
2010,08,05,06,57,14.80
2010,08,05,06,58,14.80
2010,08,05,06,59,14.70
2010,08,05,07,00,14.70
2010,08,05,07,01,14.70
2010,08,05,07,02,14.70
2010,08,05,07,03,14.70
2010,08,05,07,04,14.70
2010,08,05,07,05,14.70
2010,08,05,07,06,14.70
2010,08,05,07,07,14.70
2010,08,05,07,08,14.80
2010,08,05,07,09,14.80
2010,08,05,07,10,14.80
2010,08,05,07,11,14.80
2010,08,05,07,12,14.90
2010,08,05,07,13,14.90
2010,08,05,07,14,14.90
2010,08,05,07,15,14.90
2010,08,05,07,16,15.00
2010,08,05,07,17,15.00
2010,08,05,07,18,15.10
2010,08,05,07,19,15.20
2010,08,05,07,20,15.20
2010,08,05,07,21,15.30
2010,08,05,07,22,15.30
2010,08,05,07,23,15.30
2010,08,05,07,24,15.40
2010,08,05,07,25,15.40
2010,08,05,07,26,15.50
2010,08,05,07,27,15.60
2010,08,05,07,28,15.60
2010,08,05,07,29,15.70
2010,08,05,07,30,15.80
2010,08,05,07,31,15.80
2010,08,05,07,32,15.80
2010,08,05,07,33,15.90
2010,08,05,07,34,15.90
2010,08,05,07,35,15.90
2010,08,05,07,36,15.90
2010,08,05,07,37,16.00
2010,08,05,07,38,16.10
2010,08,05,07,39,16.10
2010,08,05,07,40,16.10
2010,08,05,07,41,16.10
2010,08,05,07,42,16.10
2010,08,05,07,43,16.10
2010,08,05,07,44,16.10
2010,08,05,07,45,16.10
2010,08,05,07,46,16.20
2010,08,05,07,47,16.20
2010,08,05,07,48,16.20
2010,08,05,07,49,16.30
2010,08,05,07,50,16.30
2010,08,05,07,51,16.40
2010,08,05,07,52,16.40
2010,08,05,07,53,16.40
2010,08,05,07,54,16.40
2010,08,05,07,55,16.60
2010,08,05,07,56,16.60
2010,08,05,07,57,16.60
2010,08,05,07,58,16.70
2010,08,05,07,59,16.70
2010,08,05,08,00,16.80
2010,08,05,08,01,16.80
2010,08,05,08,02,16.90
2010,08,05,08,03,16.90
2010,08,05,08,04,17.00
2010,08,05,08,05,17.10
2010,08,05,08,06,17.20
2010,08,05,08,07,17.30
2010,08,05,08,08,17.30
2010,08,05,08,09,17.40
2010,08,05,08,10,17.50
2010,08,05,08,11,17.50
2010,08,05,08,12,17.60
2010,08,05,08,13,17.70
2010,08,05,08,14,17.80
2010,08,05,08,15,17.80
2010,08,05,08,16,17.90
2010,08,05,08,17,18.00
2010,08,05,08,18,18.10
2010,08,05,08,19,18.20
2010,08,05,08,20,18.10
2010,08,05,08,21,18.10
2010,08,05,08,22,18.00
2010,08,05,08,23,17.90
2010,08,05,08,24,17.70
2010,08,05,08,25,17.50
2010,08,05,08,26,17.40
2010,08,05,08,27,17.30
2010,08,05,08,28,17.30
2010,08,05,08,29,17.30
2010,08,05,08,30,17.20
2010,08,05,08,31,17.20
2010,08,05,08,32,17.20
2010,08,05,08,33,17.20
2010,08,05,08,34,17.30
2010,08,05,08,35,17.30
2010,08,05,08,36,17.30
2010,08,05,08,37,17.30
2010,08,05,08,38,17.40
2010,08,05,08,39,17.40
2010,08,05,08,40,17.50
2010,08,05,08,41,17.50
2010,08,05,08,42,17.60
2010,08,05,08,43,17.60
2010,08,05,08,44,17.80
2010,08,05,08,45,17.90
2010,08,05,08,46,17.90
2010,08,05,08,47,18.00
2010,08,05,08,48,18.10
2010,08,05,08,49,18.30
2010,08,05,08,50,18.40
2010,08,05,08,51,18.50
2010,08,05,08,52,18.50
2010,08,05,08,53,18.60
2010,08,05,08,54,18.70
2010,08,05,08,55,18.70
2010,08,05,08,56,18.70
2010,08,05,08,57,18.80
2010,08,05,08,58,18.80
2010,08,05,08,59,18.90
2010,08,05,09,00,18.90
2010,08,05,09,01,18.90
2010,08,05,09,02,18.90
2010,08,05,09,03,18.90
2010,08,05,09,04,18.90
2010,08,05,09,05,18.90
2010,08,05,09,06,18.70
2010,08,05,09,07,18.60
2010,08,05,09,08,18.50
2010,08,05,09,09,18.50
2010,08,05,09,10,18.40
2010,08,05,09,11,18.20
2010,08,05,09,12,18.20
2010,08,05,09,13,18.10
2010,08,05,09,14,18.00
2010,08,05,09,15,17.90
2010,08,05,09,16,17.90
2010,08,05,09,17,17.90
2010,08,05,09,18,17.90
2010,08,05,09,19,17.90
2010,08,05,09,20,18.00
2010,08,05,09,21,18.10
2010,08,05,09,22,18.20
2010,08,05,09,23,18.20
2010,08,05,09,24,18.30
2010,08,05,09,25,18.40
2010,08,05,09,26,18.50
2010,08,05,09,27,18.50
2010,08,05,09,28,18.60
2010,08,05,09,29,18.70
2010,08,05,09,30,18.70
2010,08,05,09,31,18.80
2010,08,05,09,32,18.80
2010,08,05,09,33,18.70
2010,08,05,09,34,18.60
2010,08,05,09,35,18.50
2010,08,05,09,36,18.40
2010,08,05,09,37,18.30
2010,08,05,09,38,18.30
2010,08,05,09,39,18.20
2010,08,05,09,40,18.00
2010,08,05,09,41,17.90
2010,08,05,09,42,17.70
2010,08,05,09,43,17.50
2010,08,05,09,44,17.40
2010,08,05,09,45,17.30
2010,08,05,09,46,17.30
2010,08,05,09,47,17.40
2010,08,05,09,48,17.40
2010,08,05,09,49,17.50
2010,08,05,09,50,17.60
2010,08,05,09,51,17.60
2010,08,05,09,52,17.50
2010,08,05,09,53,17.50
2010,08,05,09,54,17.50
2010,08,05,09,55,17.50
2010,08,05,09,56,17.40
2010,08,05,09,57,17.30
2010,08,05,09,58,17.20
2010,08,05,09,59,17.00
2010,08,05,10,00,16.70
2010,08,05,10,01,16.50
2010,08,05,10,02,16.30
2010,08,05,10,03,16.20
2010,08,05,10,04,16.10
2010,08,05,10,05,16.10
2010,08,05,10,06,16.10
2010,08,05,10,07,16.10
2010,08,05,10,08,16.00
2010,08,05,10,09,15.80
2010,08,05,10,10,15.80
2010,08,05,10,11,15.80
2010,08,05,10,12,15.80
2010,08,05,10,13,15.80
2010,08,05,10,14,15.80
2010,08,05,10,15,15.90
2010,08,05,10,16,15.90
2010,08,05,10,17,16.00
2010,08,05,10,18,16.10
2010,08,05,10,19,16.10
2010,08,05,10,20,16.10
2010,08,05,10,21,16.20
2010,08,05,10,22,16.30
2010,08,05,10,23,16.30
2010,08,05,10,24,16.40
2010,08,05,10,25,16.50
2010,08,05,10,26,16.60
2010,08,05,10,27,16.70
2010,08,05,10,28,16.70
2010,08,05,10,29,16.80
2010,08,05,10,30,17.00
2010,08,05,10,31,17.10
2010,08,05,10,32,17.30
2010,08,05,10,33,17.40
2010,08,05,10,34,17.50
2010,08,05,10,35,17.70
2010,08,05,10,36,17.80
2010,08,05,10,37,18.00
2010,08,05,10,38,18.20
2010,08,05,10,39,18.20
2010,08,05,10,40,18.50
2010,08,05,10,41,18.60
2010,08,05,10,42,18.70
2010,08,05,10,43,18.90
2010,08,05,10,44,19.00
2010,08,05,10,45,19.20
2010,08,05,10,46,19.30
2010,08,05,10,47,19.50
2010,08,05,10,48,19.70
2010,08,05,10,49,19.80
2010,08,05,10,50,19.90
2010,08,05,10,51,19.90
2010,08,05,10,52,19.80
2010,08,05,10,53,19.70
2010,08,05,10,54,19.60
2010,08,05,10,55,19.40
2010,08,05,10,56,19.30
2010,08,05,10,57,19.10
2010,08,05,10,58,19.10
2010,08,05,10,59,19.00
2010,08,05,11,00,18.90
2010,08,05,11,01,18.80
2010,08,05,11,02,18.80
2010,08,05,11,03,18.60
2010,08,05,11,04,18.50
2010,08,05,11,05,18.50
2010,08,05,11,06,18.40
2010,08,05,11,07,18.40
2010,08,05,11,08,18.40
2010,08,05,11,09,18.40
2010,08,05,11,10,18.50
2010,08,05,11,11,18.50
2010,08,05,11,12,18.60
2010,08,05,11,13,18.70
2010,08,05,11,14,18.80
2010,08,05,11,15,18.90
2010,08,05,11,16,19.00
2010,08,05,11,17,19.10
2010,08,05,11,18,19.20
2010,08,05,11,19,19.40
2010,08,05,11,20,19.40
2010,08,05,11,21,19.50
2010,08,05,11,22,19.60
2010,08,05,11,23,19.80
2010,08,05,11,24,19.90
2010,08,05,11,25,20.00
2010,08,05,11,26,20.20
2010,08,05,11,27,20.20
2010,08,05,11,28,20.20
2010,08,05,11,29,20.30
2010,08,05,11,30,20.30
2010,08,05,11,31,20.40
2010,08,05,11,32,20.40
2010,08,05,11,33,20.40
2010,08,05,11,34,20.40
2010,08,05,11,35,20.30
2010,08,05,11,36,20.30
2010,08,05,11,37,20.20
2010,08,05,11,38,20.20
2010,08,05,11,39,20.20
2010,08,05,11,40,20.20
2010,08,05,11,41,20.20
2010,08,05,11,42,20.20
2010,08,05,11,43,20.10
2010,08,05,11,44,20.10
2010,08,05,11,45,20.10
2010,08,05,11,46,20.10
2010,08,05,11,47,20.00
2010,08,05,11,48,19.90
2010,08,05,11,49,20.00
2010,08,05,11,50,20.10
2010,08,05,11,51,20.10
2010,08,05,11,52,20.00
2010,08,05,11,53,19.90
2010,08,05,11,54,19.90
2010,08,05,11,55,19.80
2010,08,05,11,56,19.80
2010,08,05,11,57,19.90
2010,08,05,11,58,19.90
2010,08,05,11,59,19.90
2010,08,05,12,00,20.10
2010,08,05,12,01,20.10
2010,08,05,12,02,20.10
2010,08,05,12,03,20.10
2010,08,05,12,04,20.10
2010,08,05,12,05,20.00
2010,08,05,12,06,19.90
2010,08,05,12,07,19.90
2010,08,05,12,08,19.80
2010,08,05,12,09,19.80
2010,08,05,12,10,19.70
2010,08,05,12,11,19.60
2010,08,05,12,12,19.60
2010,08,05,12,13,19.60
2010,08,05,12,14,19.60
2010,08,05,12,15,19.70
2010,08,05,12,16,19.70
2010,08,05,12,17,19.80
2010,08,05,12,18,19.90
2010,08,05,12,19,19.90
2010,08,05,12,20,20.10
2010,08,05,12,21,20.10
2010,08,05,12,22,20.20
2010,08,05,12,23,20.20
2010,08,05,12,24,20.20
2010,08,05,12,25,20.20
2010,08,05,12,26,20.20
2010,08,05,12,27,20.40
2010,08,05,12,28,20.50
2010,08,05,12,29,20.60
2010,08,05,12,30,20.80
2010,08,05,12,31,20.90
2010,08,05,12,32,20.90
2010,08,05,12,33,21.00
2010,08,05,12,34,21.00
2010,08,05,12,35,21.10
2010,08,05,12,36,21.10
2010,08,05,12,37,21.20
2010,08,05,12,38,21.30
2010,08,05,12,39,21.40
2010,08,05,12,40,21.50
2010,08,05,12,41,21.60
2010,08,05,12,42,21.60
2010,08,05,12,43,21.70
2010,08,05,12,44,21.80
2010,08,05,12,45,21.90
2010,08,05,12,46,21.90
2010,08,05,12,47,22.00
2010,08,05,12,48,22.10
2010,08,05,12,49,22.10
2010,08,05,12,50,22.20
2010,08,05,12,51,22.20
2010,08,05,12,52,22.20
2010,08,05,12,53,22.30
2010,08,05,12,54,22.30
2010,08,05,12,55,22.30
2010,08,05,12,56,22.20
2010,08,05,12,57,22.10
2010,08,05,12,58,22.10
2010,08,05,12,59,22.00
2010,08,05,13,00,22.00
2010,08,05,13,01,21.90
2010,08,05,13,02,21.90
2010,08,05,13,03,21.90
2010,08,05,13,04,21.90
2010,08,05,13,05,22.00
2010,08,05,13,06,22.00
2010,08,05,13,07,22.10
2010,08,05,13,08,22.10
2010,08,05,13,09,22.20
2010,08,05,13,10,22.20
2010,08,05,13,11,22.30
2010,08,05,13,12,22.40
2010,08,05,13,13,22.50
2010,08,05,13,14,22.60
2010,08,05,13,15,22.60
2010,08,05,13,16,22.70
2010,08,05,13,17,22.70
2010,08,05,13,18,22.70
2010,08,05,13,19,22.60
2010,08,05,13,20,22.60
2010,08,05,13,21,22.60
2010,08,05,13,22,22.60
2010,08,05,13,23,22.60
2010,08,05,13,24,22.60
2010,08,05,13,25,22.50
2010,08,05,13,26,22.50
2010,08,05,13,27,22.60
2010,08,05,13,28,22.70
2010,08,05,13,29,22.70
2010,08,05,13,30,22.70
2010,08,05,13,31,22.90
2010,08,05,13,32,22.90
2010,08,05,13,33,23.00
2010,08,05,13,34,23.10
2010,08,05,13,35,23.10
2010,08,05,13,36,23.10
2010,08,05,13,37,23.10
2010,08,05,13,38,23.10
2010,08,05,13,39,23.20
2010,08,05,13,40,23.20
2010,08,05,13,41,23.20
2010,08,05,13,42,23.10
2010,08,05,13,43,22.90
2010,08,05,13,44,22.80
2010,08,05,13,45,22.70
2010,08,05,13,46,22.60
2010,08,05,13,47,22.40
2010,08,05,13,48,22.30
2010,08,05,13,49,22.30
2010,08,05,13,50,22.30
2010,08,05,13,51,22.40
2010,08,05,13,52,22.60
2010,08,05,13,53,22.70
2010,08,05,13,54,22.80
2010,08,05,13,55,22.90
2010,08,05,13,56,23.00
2010,08,05,13,57,23.10
2010,08,05,13,58,23.30
2010,08,05,13,59,23.50
2010,08,05,14,00,23.70
2010,08,05,14,01,23.70
2010,08,05,14,02,23.70
2010,08,05,14,03,23.70
2010,08,05,14,04,23.80
2010,08,05,14,05,23.90
2010,08,05,14,06,23.90
2010,08,05,14,07,24.00
2010,08,05,14,08,24.10
2010,08,05,14,09,24.10
2010,08,05,14,10,24.10
2010,08,05,14,11,24.10
2010,08,05,14,12,24.10
2010,08,05,14,13,24.20
2010,08,05,14,14,24.30
2010,08,05,14,15,24.40
2010,08,05,14,16,24.60
2010,08,05,14,17,24.70
2010,08,05,14,18,24.70
2010,08,05,14,19,24.80
2010,08,05,14,20,24.90
2010,08,05,14,21,24.90
2010,08,05,14,22,24.90
2010,08,05,14,23,25.00
2010,08,05,14,24,25.10
2010,08,05,14,25,25.20
2010,08,05,14,26,25.30
2010,08,05,14,27,25.40
2010,08,05,14,28,25.50
2010,08,05,14,29,25.60
2010,08,05,14,30,25.70
2010,08,05,14,31,25.70
2010,08,05,14,32,25.80
2010,08,05,14,33,25.90
2010,08,05,14,34,26.00
2010,08,05,14,35,26.10
2010,08,05,14,36,26.10
2010,08,05,14,37,26.10
2010,08,05,14,38,26.10
2010,08,05,14,39,26.00
2010,08,05,14,40,26.00
2010,08,05,14,41,26.00
2010,08,05,14,42,26.20
2010,08,05,14,43,26.20
2010,08,05,14,44,26.40
2010,08,05,14,45,26.40
2010,08,05,14,46,26.40
2010,08,05,14,47,26.10
2010,08,05,14,48,25.90
2010,08,05,14,49,25.60
2010,08,05,14,50,25.40
2010,08,05,14,51,25.30
2010,08,05,14,52,25.30
2010,08,05,14,53,25.10
2010,08,05,14,54,24.90
2010,08,05,14,55,24.80
2010,08,05,14,56,24.80
2010,08,05,14,57,24.70
2010,08,05,14,58,24.60
2010,08,05,14,59,24.60
2010,08,05,15,00,24.60
2010,08,05,15,01,24.50
2010,08,05,15,02,24.50
2010,08,05,15,03,24.50
2010,08,05,15,04,24.50
2010,08,05,15,05,24.60
2010,08,05,15,06,24.60
2010,08,05,15,07,24.70
2010,08,05,15,08,24.80
2010,08,05,15,09,24.80
2010,08,05,15,10,24.90
2010,08,05,15,11,24.90
2010,08,05,15,12,25.10
2010,08,05,15,13,25.20
2010,08,05,15,14,25.20
2010,08,05,15,15,25.30
2010,08,05,15,16,25.30
2010,08,05,15,17,25.20
2010,08,05,15,18,25.20
2010,08,05,15,19,25.20
2010,08,05,15,20,25.20
2010,08,05,15,21,25.20
2010,08,05,15,22,25.20
2010,08,05,15,23,25.10
2010,08,05,15,24,25.10
2010,08,05,15,25,25.10
2010,08,05,15,26,25.00
2010,08,05,15,27,24.90
2010,08,05,15,28,24.80
2010,08,05,15,29,24.80
2010,08,05,15,30,24.70
2010,08,05,15,31,24.80
2010,08,05,15,32,24.80
2010,08,05,15,33,24.90
2010,08,05,15,34,24.90
2010,08,05,15,35,24.90
2010,08,05,15,36,24.90
2010,08,05,15,37,24.80
2010,08,05,15,38,24.80
2010,08,05,15,39,24.70
2010,08,05,15,40,24.60
2010,08,05,15,41,24.60
2010,08,05,15,42,24.50
2010,08,05,15,43,24.50
2010,08,05,15,44,24.50
2010,08,05,15,45,24.70
2010,08,05,15,46,24.70
2010,08,05,15,47,24.80
2010,08,05,15,48,24.80
2010,08,05,15,49,24.80
2010,08,05,15,50,24.70
2010,08,05,15,51,24.70
2010,08,05,15,52,24.70
2010,08,05,15,53,24.70
2010,08,05,15,54,24.80
2010,08,05,15,55,24.90
2010,08,05,15,56,24.90
2010,08,05,15,57,25.00
2010,08,05,15,58,25.10
2010,08,05,15,59,25.10
2010,08,05,16,00,25.20
2010,08,05,16,01,25.20
2010,08,05,16,02,25.20
2010,08,05,16,03,25.30
2010,08,05,16,04,25.40
2010,08,05,16,05,25.40
2010,08,05,16,06,25.40
2010,08,05,16,07,25.40
2010,08,05,16,08,25.40
2010,08,05,16,09,25.30
2010,08,05,16,10,25.30
2010,08,05,16,11,25.30
2010,08,05,16,12,25.30
2010,08,05,16,13,25.40
2010,08,05,16,14,25.40
2010,08,05,16,15,25.40
2010,08,05,16,16,25.30
2010,08,05,16,17,25.30
2010,08,05,16,18,25.30
2010,08,05,16,19,25.20
2010,08,05,16,20,25.20
2010,08,05,16,21,25.10
2010,08,05,16,22,25.10
2010,08,05,16,23,25.10
2010,08,05,16,24,25.20
2010,08,05,16,25,25.20
2010,08,05,16,26,25.20
2010,08,05,16,27,25.20
2010,08,05,16,28,25.20
2010,08,05,16,29,25.20
2010,08,05,16,30,25.20
2010,08,05,16,31,25.20
2010,08,05,16,32,25.30
2010,08,05,16,33,25.30
2010,08,05,16,34,25.40
2010,08,05,16,35,25.50
2010,08,05,16,36,25.50
2010,08,05,16,37,25.50
2010,08,05,16,38,25.40
2010,08,05,16,39,25.40
2010,08,05,16,40,25.30
2010,08,05,16,41,25.30
2010,08,05,16,42,25.20
2010,08,05,16,43,25.20
2010,08,05,16,44,25.10
2010,08,05,16,45,25.10
2010,08,05,16,46,25.00
2010,08,05,16,47,25.00
2010,08,05,16,48,25.00
2010,08,05,16,49,25.00
2010,08,05,16,50,25.10
2010,08,05,16,51,25.10
2010,08,05,16,52,25.10
2010,08,05,16,53,25.10
2010,08,05,16,54,25.10
2010,08,05,16,55,25.10
2010,08,05,16,56,25.20
2010,08,05,16,57,25.20
2010,08,05,16,58,25.20
2010,08,05,16,59,25.20
2010,08,05,17,00,25.30
2010,08,05,17,01,25.30
2010,08,05,17,02,25.40
2010,08,05,17,03,25.40
2010,08,05,17,04,25.40
2010,08,05,17,05,25.40
2010,08,05,17,06,25.40
2010,08,05,17,07,25.30
2010,08,05,17,08,25.20
2010,08,05,17,09,25.20
2010,08,05,17,10,25.10
2010,08,05,17,11,25.10
2010,08,05,17,12,24.90
2010,08,05,17,13,24.90
2010,08,05,17,14,24.90
2010,08,05,17,15,24.80
2010,08,05,17,16,24.70
2010,08,05,17,17,24.70
2010,08,05,17,18,24.60
2010,08,05,17,19,24.60